Location: Crescent
(42.8242°N, 73.7329°W)
Time: 08:33:19
(UTC+00:00)

A-11 Canister half - All Passes

Search period start: 16 February 2026 00:00
Search period end: 26 February 2026 00:00
Orbit: 1525 x 1682 km, 47.3° (Epoch: 15 February)

Date Brightness Start Highest point End Pass type
(mag) Time Alt. Az. Time Alt. Az. Time Alt. Az.
16 Feb - 00:07:53 10° W 00:17:11 69° N 00:26:32 10° ENE visible
16 Feb - 02:13:32 10° WNW 02:22:53 78° NNE 02:32:22 10° ESE visible
16 Feb - 04:18:42 10° WNW 04:27:39 53° SW 04:36:48 10° SE visible
16 Feb - 06:26:23 10° W 06:31:01 15° SW 06:35:43 10° SSW night (unlit)
16 Feb - 19:39:08 10° S 19:46:18 25° SE 19:53:23 10° E daylight
16 Feb - 21:40:48 10° SW 21:50:08 72° SSE 21:59:22 10° ENE daylight
16 Feb - 23:46:01 10° W 23:55:19 70° N 00:04:40 10° ENE visible
17 Feb - 01:51:41 10° WNW 02:01:01 77° NNE 02:10:29 10° ESE visible
17 Feb - 03:56:51 10° WNW 04:05:51 55° SW 04:15:03 10° SE visible
17 Feb - 06:04:11 10° W 06:09:16 16° SW 06:14:27 10° SSW night (unlit)
17 Feb - 19:17:36 10° S 19:24:33 24° SE 19:31:25 10° E daylight
17 Feb - 21:19:00 10° SW 21:28:19 69° SSE 21:37:32 10° ENE daylight
17 Feb - 23:24:07 10° W 23:33:27 71° N 23:42:47 10° ENE visible
18 Feb - 01:29:50 10° WNW 01:39:10 76° NNE 01:48:37 10° E visible
18 Feb - 03:35:01 10° WNW 03:44:03 58° SW 03:53:17 10° SE visible
18 Feb - 05:42:03 10° W 05:47:32 17° SW 05:53:06 10° SSW night (unlit)
18 Feb - 18:56:05 10° S 19:02:49 22° SE 19:09:25 10° E daylight
18 Feb - 20:57:12 10° SW 21:06:30 67° SSE 21:15:41 10° ENE daylight
18 Feb - 23:02:14 10° W 23:11:35 71° N 23:20:56 10° ENE visible
19 Feb - 01:07:59 10° WNW 01:17:18 74° NNE 01:26:43 10° E visible
19 Feb - 03:13:10 10° WNW 03:22:15 60° SW 03:31:30 10° SE visible
19 Feb - 05:19:57 10° W 05:25:47 18° SW 05:31:43 10° SSW night (unlit)
19 Feb - 18:34:36 10° S 18:41:03 21° SE 18:47:25 10° E daylight
19 Feb - 20:35:25 10° SW 20:44:42 64° SE 20:53:50 10° ENE daylight
19 Feb - 22:40:21 10° W 22:49:44 72° NNW 22:59:03 10° ENE visible
20 Feb - 00:46:08 10° WNW 00:55:27 73° NNE 01:04:50 10° E visible
20 Feb - 02:51:19 10° WNW 03:00:27 63° SW 03:09:43 10° SE visible
20 Feb - 04:57:53 10° W 05:04:03 20° SW 05:10:17 10° S visible
20 Feb - 18:13:09 10° SSE 18:19:18 19° SE 18:25:22 10° E daylight
20 Feb - 20:13:38 10° SW 20:22:53 62° SE 20:32:00 10° ENE daylight
20 Feb - 22:18:29 10° W 22:27:52 73° NNW 22:37:12 10° ENE daylight
21 Feb - 00:24:15 10° WNW 00:33:35 72° NNE 00:42:57 10° E visible
21 Feb - 02:29:28 10° WNW 02:38:38 65° SW 02:47:56 10° SE visible
21 Feb - 04:35:52 10° W 04:42:18 21° SW 04:48:50 10° S visible
21 Feb - 17:51:45 10° SSE 17:57:34 18° SE 18:03:18 10° E daylight
21 Feb - 19:51:50 10° SW 20:01:05 59° SE 20:10:10 10° ENE daylight
21 Feb - 21:56:35 10° W 22:06:00 75° NNW 22:15:21 10° ENE daylight
22 Feb - 00:02:24 10° WNW 00:11:43 71° N 00:21:05 10° E visible
22 Feb - 02:07:38 10° WNW 02:16:49 68° SSW 02:26:09 10° SE visible
22 Feb - 04:13:52 10° W 04:20:32 23° SW 04:27:20 10° S visible
22 Feb - 17:30:22 10° SSE 17:35:49 17° SE 17:41:12 10° E daylight
22 Feb - 19:30:04 10° SW 19:39:17 57° SE 19:48:19 10° ENE daylight
22 Feb - 21:34:42 10° WSW 21:44:09 76° NNW 21:53:29 10° ENE daylight
22 Feb - 23:40:32 10° WNW 23:49:52 70° N 23:59:11 10° E visible
23 Feb - 01:45:48 10° WNW 01:55:01 70° SSW 02:04:20 10° SE visible
23 Feb - 03:51:52 10° W 03:58:47 24° SW 04:05:49 10° S visible
23 Feb - 17:09:02 10° SSE 17:14:04 16° SE 17:19:02 10° E daylight
23 Feb - 19:08:18 10° SW 19:17:29 55° SE 19:26:28 10° ENE daylight
23 Feb - 21:12:49 10° WSW 21:22:17 77° NNW 21:31:38 10° ENE daylight
23 Feb - 23:18:40 10° WNW 23:28:00 70° N 23:37:18 10° E visible
24 Feb - 01:23:56 10° WNW 01:33:12 73° SSW 01:42:32 10° SE visible
24 Feb - 03:29:53 10° W 03:37:02 25° SW 03:44:17 10° S visible
24 Feb - 16:47:47 10° SSE 16:52:20 14° ESE 16:56:49 10° E daylight
24 Feb - 18:46:32 10° SSW 18:55:41 52° SE 19:04:37 10° ENE daylight
24 Feb - 20:50:57 10° WSW 21:00:26 79° NNW 21:09:47 10° ENE daylight
24 Feb - 22:56:46 10° WNW 23:06:08 69° N 23:15:26 10° E visible
25 Feb - 01:02:06 10° WNW 01:11:23 75° SSW 01:20:43 10° SE visible
25 Feb - 03:07:56 10° WNW 03:15:17 27° SW 03:22:42 10° S visible
25 Feb - 16:26:37 10° SSE 16:30:35 13° ESE 16:34:30 10° E daylight
25 Feb - 18:24:48 10° SSW 18:33:53 50° SE 18:42:46 10° ENE daylight
25 Feb - 20:29:03 10° WSW 20:38:35 80° NNW 20:47:56 10° ENE daylight
25 Feb - 22:34:54 10° WNW 22:44:15 68° N 22:53:33 10° E daylight
